INTERCOSMOS 25

Last updated on Thu Oct 30 2025 00:02:15 GMT+0000 (Coordinated Universal Time)

1 21819U 91086A 25302.29824695 .00001486 00000+0 28633-3 0 9995 2 21819 82.6088 29.4301 1488956 40.1556 330.0474 12.11542808480775
UTC large
Height (km)
Speed (km/s)
/
Latitude / Longitude
Inclination (degrees)
Orbital Period (minutes)
Azimuth
Elevation
Range (km)
Doppler Factor

Next 0 passes for location: London (51.5072 / 0.1276)

Sorry there are no passes over London.